Weather reports worldwide

Advertisment
New Iberia, la, United States of America (2072047): temperature & dewpoint: 02.08.2020 12:00:00 - 08.08.2020 12:00:00 (CDT)New Iberia, la, United States of America (2072047): wind speed & gusts: 02.08.2020 12:00:00 - 08.08.2020 12:00:00 (CDT)New Iberia, la, United States of America (2072047): wind direction: 02.08.2020 12:00:00 - 08.08.2020 12:00:00 (CDT)New Iberia, la, United States of America (2072047): reduced air pressure: 02.08.2020 12:00:00 - 08.08.2020 12:00:00 (CDT)New Iberia, la, United States of America (2072047): visibility: 02.08.2020 12:00:00 - 08.08.2020 12:00:00 (CDT)New Iberia, la, United States of America (2072047): precipitation: 02.08.2020 12:00:00 - 08.08.2020 12:00:00 (CDT)
Date & Time tt [°C] td [°C] ff [km/h] ff [kn] fx [km/h] fx [kn] dd ppp [hPa] vv [km] rr [mm]
08.08.2020 12:00:00 32,8 25,0 0 0 - - N 1020,4 16 -
08.08.2020 11:00:00 31,7 25,0 0 0 - - N 1020,7 16 -
08.08.2020 10:00:00 31,1 25,6 0 0 - - N 1020,5 16 -
08.08.2020 09:00:00 30,0 25,6 0 0 - - N 1020,3 16 -
08.08.2020 08:00:00 26,7 25,0 0 0 - - N 1019,9 11 -
08.08.2020 07:00:00 23,9 23,3 0 0 - - N 1019,4 10 -
08.08.2020 06:00:00 23,9 23,3 0 0 - - N 1019,0 11 -
08.08.2020 05:00:00 24,4 23,3 0 0 - - N 1018,6 11 -
08.08.2020 04:00:00 25,0 24,4 0 0 - - N 1018,5 11 -
08.08.2020 03:00:00 25,0 24,4 0 0 - - N 1018,5 10 -
08.08.2020 02:00:00 25,6 24,4 0 0 - - N 1018,3 16 -
08.08.2020 01:00:00 25,6 24,4 0 0 - - N 1018,4 16 -
08.08.2020 00:00:00 25,6 23,9 0 0 - - N 1018,3 16 -
07.08.2020 23:00:00 26,1 23,9 0 0 - - N 1018,1 16 -
07.08.2020 22:00:00 26,1 23,9 0 0 - - N 1017,8 16 -
07.08.2020 21:00:00 27,2 23,3 0 0 - - N 1017,5 16 -
07.08.2020 20:00:00 28,3 23,3 0 0 - - N 1017,2 16 -
07.08.2020 19:00:00 30,0 22,8 8 4 - - SW 1016,9 16 -
07.08.2020 18:00:00 31,1 22,8 13 7 - - SSE 1016,9 16 -
07.08.2020 17:00:00 35,0 22,2 8 4 - - - 1017,0 16 -
07.08.2020 16:00:00 35,0 21,7 9 5 - - NNE 1017,1 16 -
07.08.2020 15:00:00 35,6 21,1 9 5 - - NNW 1017,4 16 -
07.08.2020 14:00:00 34,4 22,8 5 3 - - N 1017,9 16 -
07.08.2020 13:00:00 33,3 23,3 11 6 - - SSW 1018,0 16 -
07.08.2020 12:00:00 32,8 22,2 0 0 - - N 1018,2 16 -
07.08.2020 11:00:00 31,7 22,2 0 0 - - N 1018,3 16 -
07.08.2020 10:00:00 30,0 21,7 5 3 - - ENE 1018,0 16 -
07.08.2020 09:00:00 27,2 21,7 5 3 - - ENE 1018,0 16 -
07.08.2020 08:00:00 25,6 21,1 5 3 - - ENE 1017,4 16 -
07.08.2020 07:00:00 22,8 21,1 5 3 - - N 1017,2 16 -
07.08.2020 06:00:00 22,2 21,1 8 4 - - N 1016,8 16 -
07.08.2020 05:00:00 23,3 21,1 5 3 - - NNW 1016,3 16 -
07.08.2020 04:00:00 23,3 21,7 0 0 - - N 1015,9 16 -
07.08.2020 03:00:00 23,9 23,3 0 0 - - N 1016,1 16 -
07.08.2020 02:00:00 23,3 22,2 0 0 - - N 1016,7 16 -
07.08.2020 01:00:00 24,4 22,8 0 0 - - N 1016,8 16 -
07.08.2020 00:00:00 25,0 23,3 0 0 - - N 1016,3 16 -
06.08.2020 23:00:00 25,6 22,8 5 3 - - N 1016,1 16 -
06.08.2020 22:00:00 27,8 23,3 8 4 - - NE 1015,9 16 -
06.08.2020 21:00:00 28,3 22,8 8 4 - - ENE 1015,4 16 -
06.08.2020 20:00:00 29,4 22,8 8 4 - - NNE 1015,0 16 -
06.08.2020 19:00:00 31,7 22,2 15 8 - - NNE 1014,9 16 -
06.08.2020 18:00:00 32,8 22,8 16 9 - - NNE 1014,8 16 -
06.08.2020 17:00:00 33,3 23,3 18 10 - - N 1015,1 16 -
06.08.2020 16:00:00 33,9 23,3 8 4 - - NNE 1015,4 16 -
06.08.2020 15:00:00 33,9 23,3 18 10 - - NNW 1016,0 16 -
06.08.2020 14:00:00 32,8 22,8 0 0 - - N 1016,4 16 -
06.08.2020 13:00:00 32,8 22,2 - - - - - 1016,8 16 -
06.08.2020 12:00:00 32,2 21,7 5 3 - - - 1017,0 16 -
06.08.2020 11:00:00 30,6 22,2 - - - - - 1017,2 16 -
06.08.2020 10:00:00 28,3 22,2 11 6 - - NE 1016,8 16 -
06.08.2020 09:00:00 26,1 22,8 8 4 - - NNE 1016,7 16 -
06.08.2020 08:00:00 25,0 23,3 8 4 - - N 1016,6 16 -
06.08.2020 07:00:00 24,4 23,9 9 5 - - NNW 1016,0 15 -
06.08.2020 06:00:00 24,4 23,9 8 4 - - N 1015,7 16 -
06.08.2020 05:00:00 24,4 23,9 9 5 - - N 1014,9 16 -
06.08.2020 04:00:00 24,4 23,9 5 3 - - N 1015,1 16 -
06.08.2020 03:00:00 25,0 24,4 5 3 - - N 1015,2 16 -
06.08.2020 02:00:00 25,0 25,0 0 0 - - N 1015,3 15 -
06.08.2020 01:00:00 25,0 25,0 0 0 - - N 1015,5 13 -
06.08.2020 00:00:00 25,0 24,4 0 0 - - N 1015,5 15 -
05.08.2020 23:00:00 25,0 24,4 0 0 - - N 1015,5 13 -
05.08.2020 22:00:00 25,0 24,4 5 3 - - NW 1015,3 15 -
05.08.2020 21:00:00 25,0 24,4 5 3 - - SW 1015,3 16 0,0
05.08.2020 20:00:00 25,6 23,9 9 5 - - SW 1015,1 16 -
05.08.2020 19:00:00 26,7 23,9 8 4 57 31 NNW 1014,0 16 -
05.08.2020 18:00:00 32,2 23,9 16 9 - - NNE 1013,6 16 -
05.08.2020 17:00:00 33,3 23,9 9 5 - - N 1013,4 16 -
05.08.2020 16:00:00 32,8 23,3 13 7 - - N 1014,3 16 -
05.08.2020 15:00:00 33,3 22,8 8 4 - - W 1015,2 16 -
05.08.2020 14:00:00 33,3 22,8 13 7 - - NW 1015,8 16 -
05.08.2020 13:00:00 33,3 23,3 13 7 - - NNW 1016,1 16 -
05.08.2020 12:00:00 32,8 23,9 9 5 - - N 1016,3 16 -
05.08.2020 11:00:00 31,1 23,3 0 0 - - N 1016,6 16 -
05.08.2020 10:00:00 29,4 23,9 5 3 - - NNW 1016,6 16 -
05.08.2020 09:00:00 27,2 23,9 8 4 - - NW 1016,2 16 -
05.08.2020 08:00:00 24,4 23,9 0 0 - - N 1015,6 16 -
05.08.2020 07:00:00 22,8 22,8 0 0 - - N 1015,1 10 -
05.08.2020 06:00:00 22,8 22,8 0 0 - - N 1014,7 11 -
05.08.2020 05:00:00 22,8 22,8 0 0 - - N 1014,6 16 -
05.08.2020 04:00:00 23,3 22,8 0 0 - - N 1014,7 16 -
05.08.2020 03:00:00 23,3 22,8 0 0 - - N 1014,9 16 -
05.08.2020 02:00:00 24,4 22,8 0 0 - - N 1015,1 16 -
05.08.2020 01:00:00 25,0 23,3 5 3 - - NW 1015,2 16 -
05.08.2020 00:00:00 25,0 23,3 0 0 - - N 1015,4 16 -
04.08.2020 23:00:00 25,6 23,3 0 0 - - N 1015,4 16 -
04.08.2020 22:00:00 26,1 23,3 5 3 - - WNW 1015,3 16 -
04.08.2020 21:00:00 26,7 23,3 5 3 - - WNW 1014,7 16 -
04.08.2020 20:00:00 25,6 22,8 16 9 - - WSW 1014,7 16 -
04.08.2020 19:00:00 31,1 22,8 8 4 - - N 1014,0 16 -
04.08.2020 18:00:00 32,2 22,2 9 5 - - NNE 1013,9 16 -
04.08.2020 17:00:00 33,3 21,7 9 5 - - W 1013,5 16 -
04.08.2020 16:00:00 33,9 22,2 15 8 - - W 1014,4 16 -
04.08.2020 15:00:00 33,9 22,2 16 9 - - W 1015,0 16 -
04.08.2020 14:00:00 33,3 21,7 13 7 - - WNW 1015,6 16 -
04.08.2020 13:00:00 32,8 21,7 16 9 - - W 1016,0 16 -
04.08.2020 12:00:00 32,2 20,6 - - - - - 1016,4 16 -
04.08.2020 11:00:00 31,1 20,6 11 6 - - NNW 1016,6 16 -
04.08.2020 10:00:00 30,0 21,1 5 3 - - N 1016,4 16 -
04.08.2020 09:00:00 27,8 22,8 0 0 - - N 1016,1 16 -
04.08.2020 08:00:00 25,6 25,0 8 4 - - W 1016,2 11 -
04.08.2020 07:00:00 25,0 24,4 5 3 - - W 1015,6 10 -
04.08.2020 06:00:00 25,0 24,4 5 3 - - W 1015,2 15 -
04.08.2020 05:00:00 24,4 23,9 5 3 - - NW 1014,6 15 -
04.08.2020 04:00:00 23,3 23,3 5 3 - - SW 1014,3 15 -
04.08.2020 03:00:00 23,9 23,3 0 0 - - N 1014,3 16 -
04.08.2020 02:00:00 24,4 23,3 5 3 - - WSW 1014,4 16 -
04.08.2020 01:00:00 23,9 23,3 0 0 - - N 1014,9 16 -
04.08.2020 00:00:00 25,0 23,9 0 0 - - N 1015,0 16 -
03.08.2020 23:00:00 25,0 23,3 8 4 - - SW 1015,1 16 -
03.08.2020 22:00:00 26,1 24,4 5 3 - - S 1014,8 16 -
03.08.2020 21:00:00 28,9 23,3 0 0 - - N 1014,1 16 -
03.08.2020 20:00:00 30,6 21,7 11 6 - - NNW 1013,8 16 -
03.08.2020 19:00:00 32,2 21,1 8 4 - - E 1013,5 16 -
03.08.2020 18:00:00 33,3 20,0 8 4 - - NNE 1013,2 16 -
03.08.2020 17:00:00 33,9 20,6 5 3 - - - 1013,7 16 -
03.08.2020 16:00:00 33,9 20,0 11 6 - - N 1014,4 16 -
03.08.2020 15:00:00 33,3 20,0 - - - - - 1015,0 16 -
03.08.2020 14:00:00 33,3 20,0 15 8 - - NNE 1015,4 16 -
03.08.2020 13:00:00 32,8 20,0 16 9 - - N 1015,8 16 -
03.08.2020 12:00:00 32,2 20,0 13 7 - - NW 1016,1 16 -
03.08.2020 11:00:00 31,1 21,1 - - - - - 1016,3 16 -
03.08.2020 10:00:00 29,4 21,1 9 5 - - NNW 1016,5 16 -
03.08.2020 09:00:00 27,2 22,2 5 3 - - NW 1016,5 16 -
03.08.2020 08:00:00 23,9 22,2 0 0 - - N 1016,0 16 -
03.08.2020 07:00:00 21,7 21,1 0 0 - - N 1015,5 16 -
03.08.2020 06:00:00 21,7 20,6 0 0 - - N 1015,1 16 -
03.08.2020 05:00:00 21,7 21,7 5 3 - - WNW 1014,7 16 -
03.08.2020 04:00:00 22,2 21,7 0 0 - - N 1014,5 13 -
03.08.2020 03:00:00 22,8 22,2 0 0 - - N 1014,4 16 -
03.08.2020 02:00:00 23,3 22,8 0 0 - - N 1014,5 16 -
03.08.2020 01:00:00 23,9 23,3 0 0 - - N 1014,6 16 -
03.08.2020 00:00:00 25,0 23,3 0 0 - - N 1014,6 16 -
02.08.2020 23:00:00 25,6 23,3 0 0 - - N 1014,4 16 -
02.08.2020 22:00:00 25,6 23,9 0 0 - - N 1014,1 16 -
02.08.2020 21:00:00 27,8 23,3 0 0 - - N 1013,7 16 -
02.08.2020 20:00:00 28,3 22,2 5 3 - - N 1013,5 16 -
02.08.2020 19:00:00 31,7 20,6 8 4 - - - 1013,2 16 -
02.08.2020 18:00:00 32,2 20,6 11 6 - - NE 1013,0 16 -
02.08.2020 17:00:00 32,8 20,0 9 5 - - NNW 1013,4 16 -
02.08.2020 16:00:00 32,8 21,7 13 7 - - N 1013,6 16 -
02.08.2020 15:00:00 31,7 23,3 11 6 - - NW 1014,0 16 -
02.08.2020 14:00:00 31,1 23,9 15 8 - - NW 1014,6 16 -
02.08.2020 13:00:00 30,6 24,4 - - - - - 1015,5 16 -
02.08.2020 12:00:00 29,4 23,9 11 6 - - NNW 1016,0 16 -

tt = temperature
td = dewpoint
ff = wind speed
fx = gusts
dd = wind direction
ppp = reduced air pressure
vv = visibility
rr = precipitation

Next stations